ISS - Orbit

View from above orbital plane
View from above orbital plane
View from above satellite
View from above satellite

Ground track
Ground track

The orbit data is extracted from the following two-line orbital elements,

1 25544U 98067A   13140.55790509  .00095196  00000-0  16306-2 0  8479
2 25544 051.6468 245.3306 0009868 335.9540 204.7485 15.50388231830417
Epoch (UTC): 20 May 2013 13:23:23
Eccentricity: 0.0009868
inclination: 51.6468°
perigee height: 409 km
apogee height: 422 km
right ascension of ascending node: 245.3306°
argument of perigee: 335.9540°
revolutions per day: 15.50388231
mean anomaly at epoch: 204.7485°
orbit number at epoch: 83041

The dashed part of the orbit path shows where the satellite is in the earth's shadow,  

Developed and maintained by Chris Peat, Heavens-Above GmbH. Please read the updated FAQ before sending e-mail. Imprint. DLR